Location: Camp at the Woods
(43.2055°N, 93.0905°W)
Time: 08:26:06
(UTC+00:00)

Cosmos 2237 Rocket - Pass Details

Date: 05 December 2023
Orbit: 834 x 849 km, 71.0° (Epoch: 29 February)

Event Time Altitude Azimuth Distance (km) Brightness Sun altitude
Rises 12:00:18 0° 195° (SSW) 3,387 5.4 -15.6°
Reaches altitude 10° 12:02:45 10° 194° (SSW) 2,454 4.7 -15.1°
Maximum altitude 12:08:20 70° 111° (ESE) 894 2.5 -14.2°
Drops below altitude 10° 12:13:57 10° 29° (NNE) 2,460 4.8 -13.2°
Sets 12:16:24 0° 27° (NNE) 3,397 5.5 -12.8°
